TimeMST,TemperatureF,Dew PointF,Humidity,Sea Level PressureIn,VisibilityMPH,Wind Direction,Wind SpeedMPH,Gust SpeedMPH,PrecipitationIn,Events,Conditions,WindDirDegrees,DateUTC
12:15 AM,16.9,12.2,82,30.16,10.0,NNW,3.5,-,N/A,,Clear,340,2013-02-14 07:15:00
12:35 AM,16.2,11.3,81,30.16,10.0,NNW,5.8,-,N/A,,Clear,340,2013-02-14 07:35:00
12:55 AM,14.2,10.9,87,30.16,10.0,NW,8.1,-,N/A,,Clear,310,2013-02-14 07:55:00
1:15 AM,18.7,13.5,80,30.15,10.0,NW,8.1,-,N/A,,Clear,310,2013-02-14 08:15:00
1:35 AM,18.9,13.1,78,30.15,10.0,WNW,6.9,-,N/A,,Clear,290,2013-02-14 08:35:00
1:55 AM,16.7,12.6,84,30.15,10.0,NNW,4.6,-,N/A,,Clear,330,2013-02-14 08:55:00
2:15 AM,14.9,11.1,85,30.15,10.0,WNW,3.5,-,N/A,,Clear,300,2013-02-14 09:15:00
2:35 AM,13.1,9.9,87,30.15,10.0,NNW,4.6,-,N/A,,Clear,330,2013-02-14 09:35:00
3:15 AM,14.7,11.5,87,30.13,10.0,Calm,Calm,-,N/A,,Clear,0,2013-02-14 10:15:00
3:35 AM,11.3,7.9,86,30.14,10.0,NW,4.6,-,N/A,,Clear,310,2013-02-14 10:35:00
3:55 AM,13.1,10.4,89,30.13,10.0,NW,6.9,-,N/A,,Clear,310,2013-02-14 10:55:00
4:15 AM,13.8,10.9,88,30.14,10.0,NW,6.9,-,N/A,,Clear,310,2013-02-14 11:15:00
4:35 AM,14.5,10.9,86,30.14,10.0,NW,5.8,-,N/A,,Clear,310,2013-02-14 11:35:00
4:55 AM,12.6,9.7,88,30.15,10.0,WNW,4.6,-,N/A,,Clear,300,2013-02-14 11:55:00
5:15 AM,10.0,7.7,90,30.15,10.0,NW,5.8,-,N/A,,Clear,310,2013-02-14 12:15:00
5:35 AM,12.7,9.9,88,30.15,10.0,NW,5.8,-,N/A,,Clear,320,2013-02-14 12:35:00
5:55 AM,12.0,8.8,87,30.15,10.0,NW,4.6,-,N/A,,Clear,320,2013-02-14 12:55:00
6:15 AM,10.2,8.2,92,30.15,10.0,WNW,5.8,-,N/A,,Clear,300,2013-02-14 13:15:00
6:35 AM,10.4,7.7,89,30.16,10.0,NNW,4.6,-,N/A,,Clear,330,2013-02-14 13:35:00
6:55 AM,9.0,6.4,89,30.16,10.0,NNW,5.8,-,N/A,,Clear,330,2013-02-14 13:55:00
7:15 AM,9.3,6.8,89,30.16,10.0,NW,8.1,-,N/A,,Clear,320,2013-02-14 14:15:00
7:35 AM,13.6,10.8,88,30.17,10.0,NW,8.1,-,N/A,,Clear,320,2013-02-14 14:35:00
7:55 AM,16.2,12.2,84,30.18,10.0,NW,6.9,-,N/A,,Clear,320,2013-02-14 14:55:00
8:15 AM,18.9,14.7,84,30.18,10.0,NW,4.6,-,N/A,,Clear,320,2013-02-14 15:15:00
8:35 AM,21.0,15.6,80,30.18,10.0,NNW,4.6,-,N/A,,Clear,330,2013-02-14 15:35:00
8:55 AM,24.6,17.6,75,30.18,10.0,NW,6.9,-,N/A,,Clear,320,2013-02-14 15:55:00
9:15 AM,28.2,18.7,67,30.18,10.0,NW,6.9,-,N/A,,Clear,310,2013-02-14 16:15:00
9:35 AM,32.0,19.2,59,30.18,10.0,NW,6.9,-,N/A,,Clear,320,2013-02-14 16:35:00
9:55 AM,35.6,20.1,53,30.17,10.0,NNW,8.1,-,N/A,,Clear,340,2013-02-14 16:55:00
10:15 AM,38.7,19.8,47,30.16,10.0,NNW,9.2,16.1,N/A,,Clear,340,2013-02-14 17:15:00
10:35 AM,41.2,19.4,42,30.16,10.0,North,12.7,19.6,N/A,,Clear,350,2013-02-14 17:35:00
10:55 AM,41.9,19.0,40,30.16,10.0,North,12.7,20.7,N/A,,Clear,350,2013-02-14 17:55:00
11:15 AM,43.2,18.1,37,30.16,10.0,NNW,16.1,20.7,N/A,,Clear,340,2013-02-14 18:15:00
11:35 AM,44.4,17.4,34,30.15,10.0,NNW,18.4,25.3,N/A,,Clear,330,2013-02-14 18:35:00
11:55 AM,45.7,16.5,31,30.14,10.0,NW,13.8,21.9,N/A,,Clear,320,2013-02-14 18:55:00
12:15 PM,46.8,16.0,29,30.14,10.0,North,18.4,26.5,N/A,,Clear,350,2013-02-14 19:15:00
12:35 PM,46.4,15.8,29,30.14,10.0,NNW,19.6,26.5,N/A,,Clear,330,2013-02-14 19:35:00
12:55 PM,46.2,16.2,30,30.14,10.0,North,17.3,26.5,N/A,,Clear,360,2013-02-14 19:55:00
1:15 PM,46.6,15.4,29,30.14,10.0,North,17.3,24.2,N/A,,Clear,360,2013-02-14 20:15:00
1:35 PM,47.5,16.0,28,30.12,10.0,North,17.3,24.2,N/A,,Clear,350,2013-02-14 20:35:00
1:55 PM,47.5,15.4,28,30.12,10.0,North,11.5,23.0,N/A,,Clear,360,2013-02-14 20:55:00
2:15 PM,48.2,16.7,29,30.12,10.0,NNW,17.3,23.0,N/A,,Clear,340,2013-02-14 21:15:00
2:35 PM,48.2,18.0,30,30.13,10.0,NNW,17.3,27.6,N/A,,Clear,340,2013-02-14 21:35:00
2:55 PM,47.5,18.3,31,30.13,10.0,NNW,19.6,26.5,N/A,,Clear,340,2013-02-14 21:55:00
3:15 PM,47.3,18.5,32,30.14,10.0,NNW,17.3,26.5,N/A,,Clear,340,2013-02-14 22:15:00
3:35 PM,47.1,18.7,32,30.14,10.0,NNW,15.0,23.0,N/A,,Clear,330,2013-02-14 22:35:00
3:55 PM,47.1,19.0,33,30.14,10.0,NNW,15.0,21.9,N/A,,Clear,340,2013-02-14 22:55:00
4:15 PM,46.6,17.6,32,30.15,10.0,NNW,18.4,23.0,N/A,,Clear,340,2013-02-14 23:15:00
4:35 PM,45.7,17.2,32,30.14,10.0,NNW,18.4,24.2,N/A,,Clear,340,2013-02-14 23:35:00
4:55 PM,44.6,15.4,31,30.14,10.0,NNW,19.6,27.6,N/A,,Clear,340,2013-02-14 23:55:00
5:15 PM,43.7,14.7,31,30.14,10.0,NW,16.1,20.7,N/A,,Clear,320,2013-02-15 00:15:00
5:35 PM,42.1,13.1,31,30.15,10.0,NNW,12.7,-,N/A,,Clear,340,2013-02-15 00:35:00
5:55 PM,39.7,12.6,33,30.15,10.0,NNW,10.4,-,N/A,,Clear,340,2013-02-15 00:55:00
6:15 PM,37.4,13.1,37,30.16,10.0,NNW,9.2,-,N/A,,Clear,340,2013-02-15 01:15:00
6:35 PM,34.9,13.1,41,30.17,10.0,NNW,8.1,-,N/A,,Clear,330,2013-02-15 01:35:00
6:55 PM,32.9,13.6,45,30.18,10.0,NNW,8.1,-,N/A,,Clear,330,2013-02-15 01:55:00
7:15 PM,30.9,14.0,50,30.19,10.0,NW,12.7,-,N/A,,Clear,320,2013-02-15 02:15:00
7:35 PM,28.9,13.3,52,30.20,10.0,NW,6.9,-,N/A,,Clear,320,2013-02-15 02:35:00
7:55 PM,29.8,14.2,52,30.20,10.0,WNW,3.5,-,N/A,,Clear,300,2013-02-15 02:55:00
8:15 PM,29.3,14.2,53,30.21,10.0,North,8.1,-,N/A,,Clear,360,2013-02-15 03:15:00
8:35 PM,27.7,13.6,56,30.23,10.0,Calm,Calm,-,N/A,,Clear,0,2013-02-15 03:35:00
8:55 PM,27.0,15.1,61,30.23,10.0,NW,9.2,-,N/A,,Clear,310,2013-02-15 03:55:00
9:15 PM,26.8,14.9,61,30.23,10.0,NNW,9.2,-,N/A,,Clear,330,2013-02-15 04:15:00
9:35 PM,25.0,14.2,64,30.24,10.0,NW,8.1,-,N/A,,Clear,310,2013-02-15 04:35:00
9:55 PM,25.2,14.9,65,30.24,10.0,NW,8.1,-,N/A,,Clear,310,2013-02-15 04:55:00
10:15 PM,22.6,14.2,70,30.24,10.0,NW,8.1,-,N/A,,Clear,320,2013-02-15 05:15:00
10:35 PM,22.1,13.6,70,30.26,10.0,NW,3.5,-,N/A,,Clear,310,2013-02-15 05:35:00
10:55 PM,22.3,14.5,72,30.26,10.0,NW,6.9,-,N/A,,Clear,310,2013-02-15 05:55:00
11:15 PM,25.0,15.6,68,30.26,10.0,SW,4.6,-,N/A,,Clear,230,2013-02-15 06:15:00
11:35 PM,21.6,14.7,75,30.27,10.0,WNW,4.6,-,N/A,,Clear,290,2013-02-15 06:35:00
11:55 PM,21.7,15.3,76,30.27,10.0,NW,4.6,-,N/A,,Clear,320,2013-02-15 06:55:00